Weather History for Oxford, MS

Change the Weather History Date:

Sunday, October 20, 2013

  Actual Average Record
Temperature  
Mean Temperature 50 °F -  
Max Temperature 64 °F 70 °F 89 °F (1947)
Min Temperature 35 °F 43 °F 28 °F (1989)
Degree Days  
Heating Degree Days 16    
Moisture  
Dew Point 39 °F    
Average Humidity 78    
Maximum Humidity 100    
Minimum Humidity 37    
Precipitation  
Precipitation 0.00 in - - ()
Sea Level Pressure  
Sea Level Pressure 30.08 in    
Wind  
Wind Speed 0 mph (NNE)    
Max Wind Speed 5 mph    
Max Gust Speed -    
Visibility 10 miles    
Events      
Averages and records for this station are not official NWS values.
T = Trace of Precipitation, MM = Missing Value Source: NWS Daily Summary

Daily Weather History Graph

Daily Weather History Graph

Search for Another Location

Airport:

Trip Planner

Search our weather history database for the weather conditions in past years. The results will help you decide how hot, cold, wet, or windy it might be!

Date:

Astronomy

Oct. 20, 2013 Rise Set
Actual Time 7:07 AM CDT 6:17 PM CDT
Civil Twilight 6:42 AM CDT 6:42 PM CDT
Nautical Twilight 6:13 AM CDT 7:12 PM CDT
Astronomical Twilight 5:43 AM CDT 7:41 PM CDT
Moon 7:31 PM CDT (10/20) 8:41 AM CDT (10/20)
Length of Visible Light 12h 00m
Length of Day
11h 09m
Full, 97% of the Moon is Illuminated
Oct 20
Full
Oct 26
Last Quarter
Nov 3
New
Nov 9
First Quarter
Nov 17
Full

Hourly Weather History & Observations

Time (CDT) Temp. Windchill Dew Point Humidity Pressure Visibility Wind Dir Wind Speed Gust Speed Precip Events Conditions
12:15 AM 39.2 °F - 37.4 °F 93% 30.10 in 10.0 mi Calm Calm - N/A   Clear
12:35 AM 39.2 °F - 37.4 °F 93% 30.10 in 10.0 mi Calm Calm - N/A   Clear
12:55 AM 39.2 °F - 37.4 °F 93% 30.09 in 10.0 mi Calm Calm - N/A   Clear
1:15 AM 37.4 °F - 37.4 °F 100% 30.09 in 10.0 mi Calm Calm - N/A   Clear
1:35 AM 37.4 °F - 37.4 °F 100% 30.09 in 10.0 mi Calm Calm - N/A   Clear
1:55 AM 37.4 °F - 37.4 °F 100% 30.10 in 10.0 mi Calm Calm - N/A   Clear
2:15 AM 37.4 °F - 37.4 °F 100% 30.09 in 10.0 mi Calm Calm - N/A   Clear
2:35 AM 37.4 °F - 37.4 °F 100% 30.09 in 10.0 mi Calm Calm - N/A   Clear
2:55 AM 37.4 °F - 35.6 °F 93% 30.09 in 10.0 mi Calm Calm - N/A   Clear
3:15 AM 37.4 °F - 35.6 °F 93% 30.09 in 10.0 mi Calm Calm - N/A   Clear
3:35 AM 37.4 °F - 35.6 °F 93% 30.09 in 10.0 mi Calm Calm - N/A   Clear
3:55 AM 35.6 °F - 35.6 °F 100% 30.09 in 10.0 mi Calm Calm - N/A   Clear
4:15 AM 35.6 °F - 35.6 °F 100% 30.09 in 10.0 mi Calm Calm - N/A   Clear
4:35 AM 35.6 °F - 35.6 °F 100% 30.09 in 10.0 mi Calm Calm - N/A   Clear
4:55 AM 35.6 °F - 35.6 °F 100% 30.10 in 10.0 mi Calm Calm - N/A   Clear
5:15 AM 35.6 °F - 35.6 °F 100% 30.10 in 10.0 mi Calm Calm - N/A   Clear
5:35 AM 35.6 °F - 35.6 °F 100% 30.10 in 10.0 mi Calm Calm - N/A   Clear
5:55 AM 35.6 °F - 33.8 °F 93% 30.11 in 10.0 mi Calm Calm - N/A   Clear
6:15 AM 35.6 °F - 35.6 °F 100% 30.11 in 10.0 mi Calm Calm - N/A   Clear
6:35 AM 35.6 °F - 33.8 °F 93% 30.11 in 10.0 mi Calm Calm - N/A   Clear
6:55 AM 35.6 °F - 33.8 °F 93% 30.11 in 10.0 mi Calm Calm - N/A   Clear
7:15 AM 35.6 °F - 33.8 °F 93% 30.11 in 10.0 mi Calm Calm - N/A   Clear
7:35 AM 35.6 °F - 35.6 °F 100% 30.12 in 10.0 mi Calm Calm - N/A   Clear
7:55 AM 37.4 °F - 37.4 °F 100% 30.12 in 10.0 mi Calm Calm - N/A   Clear
8:15 AM 39.2 °F - 39.2 °F 100% 30.13 in 10.0 mi Calm Calm - N/A   Clear
8:35 AM 41.0 °F - 41.0 °F 100% 30.14 in 10.0 mi Calm Calm - N/A   Clear
8:55 AM 46.4 °F - 44.6 °F 93% 30.14 in 10.0 mi Calm Calm - N/A   Clear
9:15 AM 48.2 °F - 42.8 °F 82% 30.14 in 9.0 mi SSE 3.5 mph - N/A   Clear
9:35 AM 50.0 °F - 41.0 °F 71% 30.14 in 10.0 mi Calm Calm - N/A   Clear
9:55 AM 51.8 °F - 41.0 °F 67% 30.14 in 10.0 mi Calm Calm - N/A   Clear
10:15 AM 53.6 °F - 41.0 °F 62% 30.14 in 10.0 mi Calm Calm - N/A   Clear
10:35 AM 55.4 °F - 41.0 °F 58% 30.14 in 10.0 mi Calm Calm - N/A   Clear
10:55 AM 55.4 °F - 39.2 °F 54% 30.14 in 10.0 mi Calm Calm - N/A   Clear
11:15 AM 55.4 °F - 37.4 °F 51% 30.13 in 10.0 mi NE 3.5 mph - N/A   Clear
11:35 AM 57.2 °F - 37.4 °F 48% 30.13 in 10.0 mi Calm Calm - N/A   Clear
11:55 AM 57.2 °F - 37.4 °F 48% 30.12 in 10.0 mi Calm Calm - N/A   Clear
12:15 PM 59.0 °F - 37.4 °F 45% 30.12 in 5.0 mi Calm Calm - N/A   Haze
12:35 PM 59.0 °F - 37.4 °F 45% 30.11 in 9.0 mi Calm Calm - N/A   Clear
12:55 PM 59.0 °F - 35.6 °F 42% 30.10 in 10.0 mi Calm Calm - N/A   Clear
1:15 PM 60.8 °F - 37.4 °F 42% 30.09 in 10.0 mi Calm Calm - N/A   Unknown
1:35 PM 62.6 °F - 37.4 °F 39% 30.08 in 10.0 mi West 4.6 mph - N/A   Clear
1:55 PM 62.6 °F - 37.4 °F 39% 30.07 in 10.0 mi Calm Calm - N/A   Clear
2:35 PM 62.6 °F - 37.4 °F 39% 30.06 in 10.0 mi Calm Calm - N/A   Clear
2:55 PM 64.4 °F - 39.2 °F 40% 30.06 in 10.0 mi NW 3.5 mph - N/A   Clear
3:15 PM 64.4 °F - 37.4 °F 37% 30.05 in 10.0 mi NNE 3.5 mph - N/A   Clear
3:35 PM 64.4 °F - 37.4 °F 37% 30.05 in 10.0 mi Calm Calm - N/A   Clear
3:55 PM 64.4 °F - 37.4 °F 37% 30.04 in 9.0 mi Calm Calm - N/A   Clear
4:15 PM 64.4 °F - 37.4 °F 37% 30.04 in 10.0 mi NNE 3.5 mph - N/A   Clear
4:35 PM 64.4 °F - 39.2 °F 40% 30.04 in 10.0 mi North 3.5 mph - N/A   Clear
4:55 PM 64.4 °F - 39.2 °F 40% 30.04 in 10.0 mi North 3.5 mph - N/A   Clear
5:15 PM 62.6 °F - 41.0 °F 45% 30.03 in 10.0 mi Calm Calm - N/A   Clear
5:35 PM 62.6 °F - 42.8 °F 48% 30.03 in 10.0 mi Calm Calm - N/A   Clear
5:55 PM 59.0 °F - 46.4 °F 63% 30.03 in 10.0 mi Calm Calm - N/A   Clear
6:15 PM 55.4 °F - 48.2 °F 77% 30.03 in 10.0 mi Calm Calm - N/A   Clear
6:35 PM 53.6 °F - 46.4 °F 77% 30.03 in 10.0 mi Calm Calm - N/A   Clear
6:55 PM 50.0 °F - 46.4 °F 87% 30.03 in 10.0 mi Calm Calm - N/A   Clear
7:15 PM 50.0 °F - 46.4 °F 87% 30.04 in 10.0 mi Calm Calm - N/A   Clear
7:35 PM 48.2 °F - 46.4 °F 93% 30.04 in 10.0 mi Calm Calm - N/A   Clear
7:55 PM 48.2 °F - 46.4 °F 93% 30.04 in 10.0 mi Calm Calm - N/A   Clear
8:15 PM 46.4 °F - 46.4 °F 100% 30.04 in 10.0 mi Calm Calm - N/A   Clear
8:35 PM 46.4 °F - 44.6 °F 93% 30.04 in 10.0 mi Calm Calm - N/A   Clear
8:55 PM 46.4 °F - 44.6 °F 93% 30.04 in 10.0 mi Calm Calm - N/A   Clear
9:15 PM 44.6 °F - 44.6 °F 100% 30.05 in 10.0 mi Calm Calm - N/A   Clear
9:35 PM 44.6 °F - 44.6 °F 100% 30.05 in 10.0 mi Calm Calm - N/A   Clear
9:55 PM 44.6 °F - 42.8 °F 93% 30.05 in 10.0 mi Calm Calm - N/A   Clear
10:15 PM 44.6 °F - 42.8 °F 93% 30.05 in 10.0 mi Calm Calm - N/A   Clear
10:35 PM 44.6 °F - 41.0 °F 87% 30.05 in 10.0 mi Calm Calm - N/A   Clear
10:55 PM 42.8 °F 41.1 °F 41.0 °F 93% 30.05 in 10.0 mi East 3.5 mph - N/A   Clear
11:15 PM 42.8 °F - 41.0 °F 93% 30.05 in 10.0 mi Calm Calm - N/A   Clear
11:35 PM 42.8 °F - 41.0 °F 93% 30.05 in 10.0 mi Calm Calm - N/A   Clear
11:55 PM 41.0 °F - 41.0 °F 100% 30.05 in 10.0 mi Calm Calm - N/A   Clear